Location: Chippewa Lake
(41.0698°N, 81.9010°W)
Time: 22:06:26
(UTC+00:00)

Cosmos 1805 Rocket - Pass Details

Date: 09 May 2021
Orbit: 606 x 629 km, 82.5° (Epoch: 16 June)

Event Time Altitude Azimuth Distance (km) Brightness Sun altitude
Rises 02:06:26 0° 349° (NNW) 2,874 7.9 -15.8°
Reaches altitude 10° 02:08:40 10° 346° (NNW) 1,967 7.0 -16.1°
Maximum altitude 02:12:59 65° 265° (W) 675 3.9 -16.7°
Enters shadow 02:16:11 17° 187° (S) 1,534 5.2 -17.1°
